Hof, Germany

5:12 AM CEST on August 28, 2016 (GMT +0200)
Hof-Plauen

Weather History for EDQM - November, 2013

Change the Weather History Date:

Friday, November 29, 2013

  Actual Average Record
Temperature  
Mean Temperature 31 °F -  
Max Temperature 33 °F 36 °F 50 °F (2000)
Min Temperature 29 °F 30 °F 19 °F (2007)
Degree Days  
Heating Degree Days 34    
Moisture  
Dew Point 31 °F    
Average Humidity 92    
Maximum Humidity 97    
Minimum Humidity 87    
Precipitation  
Precipitation 0.02 in - - ()
Sea Level Pressure  
Sea Level Pressure 30.13 in    
Wind  
Wind Speed 8 mph ()    
Max Wind Speed 18 mph    
Max Gust Speed -    
Visibility 3.2 miles    
Events Rain , Snow    
Averages and records for this station are not official NWS values.
T = Trace of Precipitation, MM = Missing Value Source: Averaged Metar Reports

Daily Weather History Graph

Daily Weather History Graph

Search for Another Location

Airport or City:

Trip Planner

Search our weather history database for the weather conditions in past years. The results will help you decide how hot, cold, wet, or windy it might be!

Date:

Astronomy

Nov. 29, 2013 Rise Set
Actual Time 7:47 AM CET 4:13 PM CET
Civil Twilight 7:10 AM CET 4:51 PM CET
Nautical Twilight 6:29 AM CET 5:32 PM CET
Astronomical Twilight 5:50 AM CET 6:11 PM CET
Moon 3:13 AM CET (11/29) 2:07 PM CET (11/29)
Length of Visible Light 9h 40m
Length of Day
8h 25m
Waning Crescent, 16% of the Moon is Illuminated
Nov 29
Waning Crescent
Dec 3
New
Dec 9
First Quarter
Dec 17
Full
Dec 25
Last Quarter

Hourly Weather History & Observations

Time (CET) Temp. Windchill Dew Point Humidity Pressure Visibility Wind Dir Wind Speed Gust Speed Precip Events Conditions
12:00 AM 31 °F - 30 °F 94% 30.41 in 1 mi West 4.5 mph - - Snow Light Snow
12:20 AM 32.0 °F 25.6 °F 28.4 °F 87% 30.33 in - WSW 6.9 mph - N/A Snow Light Snow
12:50 AM 32.0 °F 25.6 °F 30.2 °F 93% 30.30 in 6.2 mi WSW 6.9 mph - N/A   Overcast
1:00 AM 31 °F - 30 °F 95% 30.39 in 2 mi West 6.7 mph - - Snow Light Snow
1:20 AM 32.0 °F 26.4 °F 30.2 °F 93% 30.30 in - WSW 5.8 mph - N/A Snow Light Snow
1:50 AM 32.0 °F 25.6 °F 30.2 °F 93% 30.30 in 6.2 mi SW 6.9 mph - N/A   Mostly Cloudy
2:00 AM 31 °F - 30 °F 94% 30.39 in 6 mi West 6.7 mph - -   Light Freezing Rain
2:20 AM 32.0 °F 26.4 °F 30.2 °F 93% 30.30 in 1.4 mi SW 5.8 mph - N/A Snow Light Snow
2:50 AM 32.0 °F 26.4 °F 30.2 °F 93% 30.30 in 5.6 mi SW 5.8 mph - N/A Snow Light Snow
3:00 AM 32 °F - 31 °F 92% 30.39 in 6 mi West 4.5 mph - -   Light Freezing Rain
3:20 AM 32.0 °F 26.4 °F 30.2 °F 93% 30.30 in 6.2 mi WSW 5.8 mph - N/A   Overcast
3:50 AM 32.0 °F 25.6 °F 30.2 °F 93% 30.30 in 5.0 mi SW 6.9 mph - N/A Snow Snow Grains
4:20 AM 32.0 °F 25.6 °F 30.2 °F 93% 30.30 in - SW 6.9 mph - N/A Snow Light Snow
4:50 AM 32.0 °F 25.6 °F 30.2 °F 93% 30.30 in - SW 6.9 mph - N/A Snow Light Snow
5:00 AM 32 °F - 31 °F 93% 30.38 in 4 mi West 4.5 mph - - Snow Snow Grains
5:20 AM 32.0 °F 24.2 °F 30.2 °F 93% 30.30 in 3.1 mi WSW 9.2 mph - N/A Snow Light Snow
5:50 AM 32.0 °F 24.2 °F 30.2 °F 93% 30.27 in 3.1 mi WSW 9.2 mph - N/A Snow Light Snow
6:00 AM 32 °F - 31 °F 93% 30.37 in 6 mi West 6.7 mph - - Rain Light Drizzle
6:20 AM 32.0 °F 24.2 °F 30.2 °F 93% 30.27 in - WSW 9.2 mph - N/A Snow Snow Grains
6:50 AM 32.0 °F 24.2 °F 30.2 °F 93% 30.27 in 1.9 mi WSW 9.2 mph - N/A Snow Light Snow
7:00 AM 32 °F - 31 °F 95% 30.35 in 4 mi West 6.7 mph - - Snow Snow Grains
7:20 AM 32.0 °F 24.2 °F 30.2 °F 93% 30.27 in 3.1 mi WSW 9.2 mph - N/A Snow Snow Grains
7:50 AM 32.0 °F 22.5 °F 30.2 °F 93% 30.27 in 1.9 mi West 12.7 mph - N/A   Overcast
8:00 AM 32 °F - 31 °F 96% 30.35 in 4 mi West 6.7 mph - - Rain Light Drizzle
8:20 AM 32.0 °F 23.0 °F 30.2 °F 93% 30.27 in 1.9 mi WSW 11.5 mph - N/A   Overcast
8:50 AM 32.0 °F 23.6 °F 30.2 °F 93% 30.27 in 2.2 mi Variable 10.4 mph - N/A Snow Light Snow
9:00 AM 32 °F - 31 °F 95% 30.33 in 5 mi West 8.9 mph - - Rain Light Drizzle
9:50 AM 32.0 °F 24.2 °F 30.2 °F 93% 30.24 in 1.9 mi WSW 9.2 mph - N/A   Overcast
10:20 AM 32.0 °F 24.8 °F 30.2 °F 93% 30.24 in 1.7 mi SW 8.1 mph - N/A Snow Light Snow
10:50 AM 32.0 °F 24.2 °F 30.2 °F 93% 30.21 in 1.7 mi SW 9.2 mph - N/A Snow Light Snow
11:00 AM 33 °F - 31 °F 92% 30.29 in 6 mi WSW 8.9 mph - - Rain Light Drizzle
11:20 AM 32.0 °F 24.2 °F 30.2 °F 93% 30.18 in 1.7 mi SW 9.2 mph - N/A   Overcast
11:50 AM 32.0 °F 24.2 °F 30.2 °F 93% 30.18 in 1.6 mi SW 9.2 mph - N/A   Overcast
12:00 PM 33 °F - 31 °F 92% 30.25 in 4 mi WSW 6.7 mph - -   Mist
12:20 PM 32.0 °F 23.6 °F 30.2 °F 93% 30.15 in 1.7 mi WSW 10.4 mph - N/A   Overcast
12:50 PM 33.8 °F 25.8 °F 30.2 °F 87% 30.12 in 3.7 mi WSW 10.4 mph - N/A   Overcast
1:00 PM 33 °F - 31 °F 92% 30.20 in 4 mi WSW 6.7 mph - -   Mist
1:20 PM 33.8 °F 25.8 °F 30.2 °F 87% 30.12 in 1.6 mi SW 10.4 mph - N/A   Overcast
1:50 PM 33.8 °F 26.4 °F 30.2 °F 87% 30.09 in 2.8 mi SW 9.2 mph - N/A   Overcast
2:00 PM 33 °F - 31 °F 92% 30.16 in 6 mi WSW 6.7 mph - - Rain Light Drizzle
2:20 PM 33.8 °F 23.9 °F 30.2 °F 87% 30.06 in 2.8 mi SW 15.0 mph - N/A   Overcast
2:50 PM 33.8 °F 24.3 °F 30.2 °F 87% 30.04 in 3.1 mi Variable 13.8 mph - N/A   Overcast
3:00 PM 33 °F - 31 °F 91% 30.10 in 4 mi WSW 11.2 mph - - Rain Light Drizzle
3:20 PM 33.8 °F 25.8 °F 30.2 °F 87% 30.04 in - SW 10.4 mph - N/A   Overcast
3:50 PM 33.8 °F 25.3 °F 30.2 °F 87% 30.01 in 5.0 mi SW 11.5 mph - N/A   Overcast
4:20 PM 33.8 °F 24.3 °F 30.2 °F 87% 29.98 in 3.1 mi SW 13.8 mph - N/A   Overcast
4:50 PM 33.8 °F 23.9 °F 30.2 °F 87% 29.98 in 3.7 mi SW 15.0 mph - N/A   Overcast
5:00 PM 33 °F - 31 °F 89% 30.04 in 5 mi SW 11.2 mph - - Rain Light Drizzle
5:20 PM 32.0 °F 20.8 °F 30.2 °F 93% 29.95 in 1.7 mi SW 17.3 mph - N/A Snow Light Snow
5:50 PM 32.0 °F 22.1 °F 30.2 °F 93% 29.95 in 0.8 mi SW 13.8 mph - N/A Snow Light Snow
6:00 PM 32 °F - 31 °F 93% 30.01 in 1 mi SW 8.9 mph - - Snow Snow
6:20 PM 32.0 °F 21.6 °F 30.2 °F 93% 29.92 in 1.5 mi Variable 15.0 mph - N/A Snow Light Snow
6:50 PM 32.0 °F 21.6 °F 30.2 °F 93% 29.92 in 1.5 mi SW 15.0 mph - N/A Snow Light Snow
7:00 PM 32 °F - 31 °F 95% 29.97 in 2 mi SW 13.4 mph - - Snow Light Snow
7:20 PM 32.0 °F 20.5 °F 30.2 °F 93% 29.89 in 2.5 mi Variable 18.4 mph - N/A Snow Light Snow
7:50 PM 32.0 °F 20.8 °F 30.2 °F 93% 29.86 in 1.6 mi Variable 17.3 mph - N/A Snow Light Snow
8:00 PM 32 °F - 31 °F 95% 29.92 in 3 mi SW 17.9 mph - - Snow Light Snow
8:20 PM 32.0 °F 21.2 °F 30.2 °F 93% 29.86 in 1.2 mi SW 16.1 mph - N/A Snow Light Snow
8:50 PM 32.0 °F 20.8 °F 30.2 °F 93% 29.83 in 1.2 mi SW 17.3 mph - N/A Snow Light Snow
9:00 PM 32 °F - 31 °F 97% 29.88 in 2 mi SW 15.7 mph - - Snow Light Snow
9:20 PM 32.0 °F 21.2 °F 30.2 °F 93% 29.80 in 1.4 mi SSW 16.1 mph - N/A Snow Light Snow
9:50 PM 33.8 °F 23.9 °F 32.0 °F 93% 29.80 in 1.7 mi SW 15.0 mph - N/A Snow Light Snow
10:20 PM 33.8 °F 23.2 °F 32.0 °F 93% 29.80 in 2.5 mi SW 17.3 mph - N/A Snow Light Snow
10:50 PM 33.8 °F 24.8 °F 32.0 °F 93% 29.80 in 1.4 mi SW 12.7 mph - N/A Snow Light Snow
11:00 PM 33 °F - 32 °F 94% 29.87 in 2 mi West 11.2 mph - - Snow Snow
11:20 PM 33.8 °F 24.8 °F 32.0 °F 93% 29.80 in 6.2 mi SW 12.7 mph - N/A Snow Light Snow
11:50 PM 33.8 °F 24.3 °F 32.0 °F 93% 29.80 in 6.2 mi WSW 13.8 mph - N/A   Mostly Cloudy